Weather History for KDTL - January, 2013

Change the Weather History Date:

Friday, January 11, 2013

  Actual Average Record
Temperature  
Mean Temperature 26 °F -  
Max Temperature 33 °F 15 °F 44 °F (1992)
Min Temperature 19 °F -7 °F -38 °F (1977)
Degree Days  
Heating Degree Days 39    
Moisture  
Dew Point 30 °F    
Average Humidity 100    
Maximum Humidity 100    
Minimum Humidity 93    
Precipitation  
Precipitation 0.08 in - - ()
Sea Level Pressure  
Sea Level Pressure 29.45 in    
Wind  
Wind Speed 9 mph (East)    
Max Wind Speed 18 mph    
Max Gust Speed 22 mph    
Visibility 3 miles    
Events Fog , Snow    
Averages and records for this station are not official NWS values.
T = Trace of Precipitation, MM = Missing Value Source: NWS Daily Summary

Daily Weather History Graph

Daily Weather History Graph

Search for Another Location

Airport or City:

Trip Planner

Search our weather history database for the weather conditions in past years. The results will help you decide how hot, cold, wet, or windy it might be!

Date:

Astronomy

Jan. 11, 2013 Rise Set
Actual Time 8:06 AM CST 4:57 PM CST
Civil Twilight 7:31 AM CST 5:31 PM CST
Nautical Twilight 6:53 AM CST 6:09 PM CST
Astronomical Twilight 6:17 AM CST 6:46 PM CST
Moon 7:37 AM CST (1/11) 5:20 PM CST (1/11)
Length of Visible Light 9h 59m
Length of Day
8h 51m
Waning Crescent, 0% of the Moon is Illuminated
Jan 11
Waning Crescent
Jan 11
New
Jan 18
First Quarter
Jan 26
Full
Feb 3
Last Quarter

Hourly Weather History & Observations

Time (CST) Temp. Windchill Dew Point Humidity Pressure Visibility Wind Dir Wind Speed Gust Speed Precip Events Conditions
12:12 AM 32.0 °F 22.1 °F 32.0 °F 100% 29.57 in 10.0 mi SSE 13.8 mph - N/A   Overcast
12:33 AM 32.0 °F 22.5 °F 32.0 °F 100% 29.56 in 4.0 mi SSE 12.7 mph - N/A   Overcast
12:53 AM 32.0 °F 22.5 °F 32.0 °F 100% 29.56 in 3.0 mi SSE 12.7 mph 18.4 mph N/A   Overcast
1:12 AM 32.0 °F 22.5 °F 32.0 °F 100% 29.56 in 4.0 mi SSE 12.7 mph - N/A   Overcast
1:33 AM 32.0 °F 22.5 °F 32.0 °F 100% 29.55 in 2.0 mi SSE 12.7 mph - N/A   Overcast
1:53 AM 32.0 °F 22.1 °F 32.0 °F 100% 29.54 in 3.0 mi SSE 13.8 mph - 0.01 in   Overcast
2:12 AM 32.0 °F 23.0 °F 32.0 °F 100% 29.54 in 4.0 mi SSE 11.5 mph - 0.01 in   Overcast
2:33 AM 32.0 °F 23.6 °F 32.0 °F 100% 29.54 in 4.0 mi SSE 10.4 mph - 0.03 in   Overcast
2:52 AM 32.0 °F 24.8 °F 32.0 °F 100% 29.53 in 7.0 mi SSE 8.1 mph - 0.03 in   Overcast
3:13 AM 32.0 °F 25.6 °F 32.0 °F 100% 29.53 in 10.0 mi South 6.9 mph - N/A   Overcast
3:33 AM 33.8 °F 27.0 °F 32.0 °F 93% 29.53 in 7.0 mi SSE 8.1 mph - N/A   Overcast
3:52 AM 32.0 °F 24.8 °F 32.0 °F 100% 29.53 in 3.0 mi South 8.1 mph - N/A   Overcast
4:13 AM 32.0 °F 24.2 °F 32.0 °F 100% 29.51 in 2.0 mi South 9.2 mph - N/A   Overcast
4:32 AM 32.0 °F 24.8 °F 32.0 °F 100% 29.51 in 1.5 mi SSE 8.1 mph - N/A   Overcast
4:53 AM 32.0 °F 25.6 °F 32.0 °F 100% 29.50 in 1.2 mi SSE 6.9 mph - N/A   Overcast
5:13 AM 32.0 °F 25.6 °F 32.0 °F 100% 29.50 in 1.2 mi SSE 6.9 mph - N/A   Overcast
5:32 AM 32.0 °F 26.4 °F 32.0 °F 100% 29.49 in 1.5 mi SSE 5.8 mph - N/A   Overcast
6:13 AM 32.0 °F 27.5 °F 32.0 °F 100% 29.49 in 1.2 mi SSE 4.6 mph - N/A   Overcast
6:32 AM 32.0 °F 27.5 °F 32.0 °F 100% 29.49 in 1.2 mi SE 4.6 mph - N/A   Overcast
6:53 AM 32.0 °F 28.7 °F 32.0 °F 100% 29.48 in 1.5 mi ESE 3.5 mph - N/A   Overcast
7:13 AM 32.0 °F 27.5 °F 32.0 °F 100% 29.48 in 2.5 mi SE 4.6 mph - N/A   Overcast
7:32 AM 32.0 °F 27.5 °F 32.0 °F 100% 29.47 in 3.0 mi ESE 4.6 mph - N/A   Overcast
7:53 AM 32.0 °F 28.7 °F 32.0 °F 100% 29.47 in 3.0 mi ESE 3.5 mph - N/A   Overcast
8:13 AM 32.0 °F 27.5 °F 32.0 °F 100% 29.46 in 3.0 mi ESE 4.6 mph - N/A   Overcast
8:32 AM 32.0 °F - 32.0 °F 100% 29.48 in 4.0 mi Calm Calm - N/A   Overcast
8:53 AM 32.0 °F 28.7 °F 32.0 °F 100% 29.49 in 1.5 mi SE 3.5 mph - N/A   Overcast
9:13 AM 33.8 °F 30.8 °F 33.8 °F 100% 29.48 in 1.0 mi ESE 3.5 mph - N/A   Overcast
9:32 AM 33.8 °F 30.8 °F 33.8 °F 100% 29.48 in 1.2 mi ESE 3.5 mph - N/A   Overcast
9:53 AM 33.8 °F - 33.8 °F 100% 29.47 in 1.0 mi Calm Calm - N/A   Overcast
10:13 AM 33.8 °F 30.8 °F 33.8 °F 100% 29.48 in 1.0 mi ESE 3.5 mph - N/A   Overcast
10:32 AM 33.8 °F 30.8 °F 33.8 °F 100% 29.47 in 1.0 mi ESE 3.5 mph - N/A   Drizzle
10:53 AM 33.8 °F - 33.8 °F 100% 29.47 in 1.2 mi Calm Calm - N/A   Overcast
11:13 AM 33.8 °F - 33.8 °F 100% 29.46 in 1.0 mi Calm Calm - N/A   Overcast
11:32 AM 33.8 °F 30.8 °F 33.8 °F 100% 29.44 in 0.5 mi ENE 3.5 mph - N/A Fog Fog
11:53 AM 33.8 °F 30.8 °F 33.8 °F 100% 29.44 in 0.5 mi East 3.5 mph - N/A Fog Fog
12:13 PM 33.8 °F 28.6 °F 33.8 °F 100% 29.43 in 0.5 mi East 5.8 mph - N/A Fog Fog
12:32 PM 33.8 °F 30.8 °F 33.8 °F 100% 29.43 in 0.2 mi SE 3.5 mph - N/A Fog Fog
12:51 PM 33.8 °F - 33.8 °F 100% 29.43 in 0.2 mi Calm Calm - N/A   Drizzle
1:13 PM 33.8 °F - 33.8 °F 100% 29.42 in 0.5 mi Calm Calm - 0.01 in   Drizzle
2:13 PM 33.8 °F 30.8 °F 33.8 °F 100% 29.41 in 1.0 mi NE 3.5 mph - N/A   Drizzle
2:33 PM 33.8 °F - 33.8 °F 100% 29.42 in 1.0 mi Calm Calm - N/A   Light Drizzle
2:52 PM 33.8 °F 30.8 °F 33.8 °F 100% 29.40 in 1.0 mi NE 3.5 mph - N/A   Light Drizzle
3:13 PM 33.8 °F 30.8 °F 33.8 °F 100% 29.40 in 0.8 mi NNE 3.5 mph - N/A   Drizzle
3:33 PM 33.8 °F 30.8 °F 33.8 °F 100% 29.39 in 1.2 mi NNE 3.5 mph - 0.01 in   Drizzle
3:52 PM 33.8 °F - 33.8 °F 100% 29.40 in 1.5 mi Calm Calm - 0.01 in   Drizzle
4:13 PM 32.0 °F 25.6 °F 32.0 °F 100% 29.37 in 3.0 mi North 6.9 mph - N/A   Light Drizzle
4:33 PM 32.0 °F 26.4 °F 32.0 °F 100% 29.36 in 2.0 mi North 5.8 mph - 0.02 in   Overcast
4:52 PM 32.0 °F 25.6 °F 32.0 °F 100% 29.37 in 4.0 mi NNW 6.9 mph - 0.02 in   Overcast
5:13 PM 32.0 °F 24.8 °F 32.0 °F 100% 29.37 in 4.0 mi NNW 8.1 mph - N/A   Overcast
5:32 PM 32.0 °F 23.6 °F 32.0 °F 100% 29.36 in 4.0 mi NNW 10.4 mph - N/A   Overcast
5:53 PM 32.0 °F 22.1 °F 32.0 °F 100% 29.37 in 4.0 mi NW 13.8 mph - N/A   Overcast
6:12 PM 30.2 °F 20.2 °F 30.2 °F 100% 29.39 in 2.5 mi NW 12.7 mph - N/A   Overcast
6:33 PM 30.2 °F 19.3 °F 30.2 °F 100% 29.39 in 2.5 mi NW 15.0 mph - N/A   Overcast
6:53 PM 26.6 °F 14.3 °F 26.6 °F 100% 29.37 in 2.0 mi NW 16.1 mph 19.6 mph N/A   Overcast
7:12 PM 26.6 °F 13.4 °F 26.6 °F 100% 29.38 in 2.5 mi NW 18.4 mph - N/A   Overcast
7:33 PM 23.0 °F 9.6 °F 23.0 °F 100% 29.38 in - NW 16.1 mph 20.7 mph N/A   Overcast
7:53 PM 23.0 °F 10.1 °F 23.0 °F 100% 29.38 in - NW 15.0 mph 21.9 mph N/A   Overcast
8:12 PM 21.2 °F 9.5 °F 21.2 °F 100% 29.39 in - NNW 11.5 mph 20.7 mph N/A   Overcast
8:33 PM 21.2 °F 8.9 °F 21.2 °F 100% 29.39 in 2.5 mi NW 12.7 mph - N/A   Overcast
8:53 PM 21.2 °F 8.9 °F 21.2 °F 100% 29.39 in 2.5 mi NW 12.7 mph - N/A   Overcast
9:12 PM 21.2 °F 8.3 °F 19.4 °F 93% 29.39 in 3.0 mi NNW 13.8 mph - N/A   Overcast
9:33 PM 21.2 °F 9.5 °F 19.4 °F 93% 29.39 in 3.0 mi NW 11.5 mph - N/A Snow Light Snow
9:53 PM 19.4 °F 7.2 °F 19.4 °F 100% 29.38 in 2.5 mi NW 11.5 mph - N/A Snow Light Snow
10:12 PM 19.4 °F 6.0 °F 19.4 °F 100% 29.37 in 2.5 mi NW 13.8 mph - N/A Snow Light Snow
10:33 PM 19.4 °F 6.0 °F 19.4 °F 100% 29.36 in 3.0 mi NW 13.8 mph - N/A Snow Light Snow
10:53 PM 19.4 °F 6.6 °F 19.4 °F 100% 29.37 in 10.0 mi NW 12.7 mph - N/A   Overcast
11:12 PM 19.4 °F 5.5 °F 19.4 °F 100% 29.37 in 10.0 mi NW 15.0 mph 19.6 mph N/A   Overcast
11:33 PM 19.4 °F 6.6 °F 19.4 °F 100% 29.37 in 7.0 mi NW 12.7 mph - N/A   Overcast
11:53 PM 21.2 °F 7.3 °F 19.4 °F 93% 29.38 in 10.0 mi NNW 16.1 mph - N/A   Overcast